Tracking 29069 objects as of 18-Jul-2024
HD Live streaming from Space Station
objects crossing your sky now

SL-16 DEB

Track SL-16 DEB now!
10-day predictions


NORAD ID: 23709
Int'l Code: 1995-058F
Perigee: 843.8 km
Apogee: 1,137.6 km
Inclination: 71.0 °
Period: 104.8 minutes
Semi major axis: 7361 km
RCS: 0.088 m2 (small)
Launch date: October 31, 1995
Source: Commonwealth of Independent States (former USSR) (CIS)
Launch site: TYURATAM MISSILE AND SPACE COMPLEX (TTMTR)

Note: This is SATELLITE DEBRIS
Your satellite tracking list
Your tracking list is empty




NASA's NSSDC Master Catalog

Two Line Element Set (TLE):
1 23709U 95058F   24199.93606924  .00000178  00000-0  20303-3 0  9999
2 23709  71.0384  34.3957 0199600 270.1506 203.8137 13.74472158439634
Source of the keplerian elements: AFSPC